Humidity-temperature Sensor

Selected Measurement Type: Relative Humidity

 
Relative Humidity [%]     6 entries per hour
Showing data from 3/14/2016 (00:00:00 Z) to 3/11/2016 (00:01:00 Z)
Previous Next [ Day | 3-Days | 7-Days ]
First Last
Prev [ Day | 3-Days | 7-Days ] Next
First Last

Start Time:     :
End Time:     :     
Time (in GMT) :00 :50 :40 :30 :20 :10
Previous Next [ Day | 3-Days | 7-Days ]
First Last
Prev [ Day | 3-Days | 7-Days ] Next
First Last


123 => good data
MM => data is determined as missing
-- => data not received/configured
Back to Top Back to Top
3/14/2016 00:00 to 23:10 88.48 88.29 88.21 88.15 88.56 88.94
3/13/2016 23:00 to 22:10 88.64 88.60 88.82 89.28 90.25 91.36
3/13/2016 22:00 to 21:10 92.86 93.06 94.13 95.02 95.53 95.35
3/13/2016 21:00 to 20:10 95.10 95.06 95.12 95.35 95.31 94.80
3/13/2016 20:00 to 19:10 94.34 94.31 94.60 94.05 93.41 92.48
3/13/2016 19:00 to 18:10 91.28 89.08 88.98 89.97 91.34 92.50
3/13/2016 18:00 to 17:10 93.30 93.59 93.47 93.45 93.59 93.65
3/13/2016 17:00 to 16:10 93.35 92.92 92.62 91.10 90.66 90.56
3/13/2016 16:00 to 15:10 91.81 91.51 90.94 90.86 90.92 91.30
3/13/2016 15:00 to 14:10 91.65 90.39 91.00 90.11 86.23 87.20
3/13/2016 14:00 to 13:10 88.50 90.94 88.13 88.07 87.77 87.73
3/13/2016 13:00 to 12:10 87.26 87.79 90.46 90.21 92.03 92.98
3/13/2016 12:00 to 11:10 93.41 91.79 89.53 89.49 89.00 86.27
3/13/2016 11:00 to 10:10 87.26 87.49 91.71 90.70 89.67 90.58
3/13/2016 10:00 to 9:10 90.15 88.76 88.37 88.15 87.28 88.70
3/13/2016 09:00 to 8:10 90.62 91.61 92.01 91.36 91.36 90.62
3/13/2016 08:00 to 7:10 92.86 90.03 89.16 89.79 91.18 87.91
3/13/2016 07:00 to 6:10 88.66 88.01 86.60 88.39 89.10 91.04
3/13/2016 06:00 to 5:10 90.11 88.37 88.92 88.33 86.19 87.28
3/13/2016 05:00 to 4:10 87.59 88.60 87.61 83.38 82.82 86.29
3/13/2016 04:00 to 3:10 85.97 83.75 86.39 86.88 86.05 85.26
3/13/2016 03:00 to 2:10 86.90 86.07 86.39 84.88 85.79 85.83
3/13/2016 02:00 to 1:10 86.62 86.27 84.70 84.58 84.17 84.49
3/13/2016 01:00 to 0:10 83.36 86.03 85.79 85.24 82.23 82.84
3/13/2016 00:00 to 23:10 82.84 82.86 82.43 81.93 82.41 82.80
3/12/2016 23:00 to 22:10 83.28 81.95 82.43 81.56 81.95 83.59
3/12/2016 22:00 to 21:10 83.73 83.77 83.46 85.42 84.74 83.26
3/12/2016 21:00 to 20:10 82.92 82.70 82.80 83.02 83.34 84.45
3/12/2016 20:00 to 19:10 84.47 84.43 82.07 85.14 85.08 85.93
3/12/2016 19:00 to 18:10 85.40 85.67 84.01 82.53 83.32 82.80
3/12/2016 18:00 to 17:10 83.42 83.73 83.75 83.73 83.04 82.88
3/12/2016 17:00 to 16:10 83.30 83.26 83.57 83.32 82.15 83.91
3/12/2016 16:00 to 15:10 84.21 81.14 81.97 82.90 82.11 82.51
3/12/2016 15:00 to 14:10 83.02 81.56 81.73 81.56 82.17 82.90
3/12/2016 14:00 to 13:10 82.64 82.66 81.44 82.19 83.02 82.96
3/12/2016 13:00 to 12:10 81.83 83.59 82.64 83.83 83.48 83.26
3/12/2016 12:00 to 11:10 83.40 81.77 82.29 83.48 85.12 85.00
3/12/2016 11:00 to 10:10 82.74 82.15 83.06 83.73 84.29 84.21
3/12/2016 10:00 to 9:10 83.85 84.17 84.72 84.17 83.67 84.17
3/12/2016 09:00 to 8:10 86.35 86.07 85.73 85.63 85.30 86.09
3/12/2016 08:00 to 7:10 86.82 86.68 85.48 86.15 87.42 87.75
3/12/2016 07:00 to 6:10 88.19 89.28 89.16 88.39 87.73 86.92
3/12/2016 06:00 to 5:10 88.46 88.88 87.95 86.96 87.93 88.76
3/12/2016 05:00 to 4:10 88.48 88.74 87.85 88.25 87.55 87.93
3/12/2016 04:00 to 3:10 88.56 90.39 88.68 88.76 86.54 86.84
3/12/2016 03:00 to 2:10 86.78 86.15 86.05 85.97 85.46 86.19
3/12/2016 02:00 to 1:10 85.40 85.57 84.39 85.06 84.72 84.45
3/12/2016 01:00 to 0:10 84.88 84.84 85.18 84.21 84.47 85.95
3/12/2016 00:00 to 23:10 86.74 87.30 86.64 82.07 81.71 80.88
3/11/2016 23:00 to 22:10 75.83 74.19 75.70 77.10 77.56 78.03
3/11/2016 22:00 to 21:10 77.62 76.31 77.04 78.37 76.63 77.68
3/11/2016 21:00 to 20:10 77.48 77.40 77.85 76.90 77.62 76.96
3/11/2016 20:00 to 19:10 77.44 77.77 79.28 79.60 79.22 79.91
3/11/2016 19:00 to 18:10 79.69 79.93 79.56 81.44 80.66 80.88
3/11/2016 18:00 to 17:10 80.33 80.86 80.55 81.28 81.40 80.53
3/11/2016 17:00 to 16:10 81.42 80.92 82.29 82.43 83.18 82.66
3/11/2016 16:00 to 15:10 82.29 80.55 79.91 80.43 81.28 82.43
3/11/2016 15:00 to 14:10 82.45 82.86 83.46 82.25 81.63 80.80
3/11/2016 14:00 to 13:10 80.84 80.84 82.11 82.31 81.08 82.29
3/11/2016 13:00 to 12:10 82.62 84.78 86.62 87.46 87.49 87.06
3/11/2016 12:00 to 11:10 87.57 88.19 88.50 89.02 89.02 89.06
3/11/2016 11:00 to 10:10 90.78 91.61 91.45 91.24 91.08 89.61
3/11/2016 10:00 to 9:10 84.35 84.01 84.33 84.53 84.39 84.03
3/11/2016 09:00 to 8:10 83.67 83.57 83.57 83.67 83.59 83.22
3/11/2016 08:00 to 7:10 83.16 83.14 82.68 82.37 82.53 83.02
3/11/2016 07:00 to 6:10 82.37 83.02 83.46 83.26 82.96 82.98
3/11/2016 06:00 to 5:10 82.82 82.96 82.47 82.41 82.21 82.72
3/11/2016 05:00 to 4:10 82.55 82.57 82.37 82.78 83.22 83.18
3/11/2016 04:00 to 3:10 83.40 83.54 84.07 84.49 84.80 85.24
3/11/2016 03:00 to 2:10 85.59 86.35 86.39 86.70 86.09 85.71
3/11/2016 02:00 to 1:10 85.53 84.70 84.72 85.04 84.60 84.41
3/11/2016 01:00 to 0:10 84.51 84.68 84.15 84.05 84.03 83.50